YM2KA-13 Weather Reports


Display with metric or nautical units.
time (UTC)temp
F
wind
direction
speed
MPH
gust
MPH
rain 1hr
in
rain 24hr
in
rain mn
in
humidity
%
barometer
mb
20260504100346 40 299 6.0 9.0 0.03 0.30 0.26 90 1006.4
20260504081338 39 279 1.0 3.0 0.04 0.24 0.20 92 1006.0
20260504080723 39 287 5.0 6.0 0.03 0.23 0.19 92 1005.9
20260504080339 39 277 5.0 7.0 0.03 0.23 0.19 91 1005.9
20260504070344 38 267 2.0 8.0 0.03 0.20 0.16 92 1005.3
20260504050721 39 340 1.0 2.0 0.01 0.15 0.11 89 1004.2
20260504050337 39 348 2.0 3.0 0.01 0.15 0.11 90 1004.1
20260504045339 39 341 0.0 2.0 0.02 0.15 0.11 90 1004.1
20260504045218 39 341 1.0 2.0 0.01 0.14 0.10 90 1004.0
20260504044340 39 325 1.0 2.0 0.01 0.14 0.10 90 1004.0
20260504043725 39 349 1.0 3.0 0.01 0.14 0.10 90 1003.9
20260504043341 39 320 1.0 3.0 0.01 0.14 0.10 90 1004.0
20260504042342 39 309 1.0 2.0 0.01 0.14 0.10 91 1003.9
20260504042221 39 315 2.0 3.0 0.01 0.14 0.10 91 1003.9
20260504041344 39 309 1.0 3.0 0.01 0.14 0.10 91 1003.8
20260504040717 39 1 2.0 3.0 0.02 0.14 0.10 91 1003.6
20260504040343 39 333 2.0 3.0 0.02 0.14 0.10 91 1003.7
20260504035345 39 337 2.0 3.0 0.01 0.13 0.09 92 1003.6
20260504035224 39 297 1.0 2.0 0.01 0.13 0.09 92 1003.6
20260504034346 39 19 1.0 1.0 0.01 0.14 0.09 92 1003.5
20260504033720 39 315 0.0 3.0 0.01 0.14 0.09 92 1003.4
20260504033336 39 324 0.0 1.0 0.01 0.14 0.09 92 1003.4
20260504032338 39 328 1.0 3.0 0.01 0.14 0.09 91 1003.4
20260504032217 39 315 1.0 2.0 0.01 0.14 0.09 92 1003.3
20260504031339 39 310 2.0 3.0 0.01 0.14 0.09 91 1003.3
20260504030723 39 326 1.0 2.0 0.00 0.13 0.08 91 1003.1
20260504030340 39 315 1.0 2.0 0.00 0.13 0.08 91 1003.2
20260504025341 39 328 2.0 6.0 0.00 0.13 0.08 91 1003.1
20260504025220 39 317 2.0 3.0 0.00 0.13 0.08 91 1003.2
20260504024342 39 311 1.0 2.0 0.00 0.13 0.08 91 1003.1
20260504023717 39 314 2.0 5.0 0.01 0.13 0.08 91 1003.1
20260504023343 39 312 2.0 3.0 0.01 0.13 0.08 91 1003.1
20260504022345 39 323 2.0 3.0 0.02 0.13 0.08 91 1003.0
20260504022223 39 316 1.0 2.0 0.02 0.13 0.08 91 1003.0
20260504021346 39 298 1.0 3.0 0.02 0.13 0.08 91 1003.1
20260504020720 39 335 1.0 2.0 0.02 0.13 0.08 91 1003.1
20260504020336 39 336 2.0 5.0 0.02 0.13 0.08 91 1003.0
20260504015338 40 326 2.0 3.0 0.02 0.13 0.08 90 1003.0
20260504015217 40 339 2.0 3.0 0.03 0.13 0.08 90 1003.0
20260504014339 40 308 2.0 3.0 0.04 0.13 0.08 90 1003.0
20260504013723 40 320 3.0 5.0 0.04 0.12 0.07 90 1003.0
20260504013339 40 308 2.0 6.0 0.04 0.12 0.07 90 1003.0
20260504012341 40 307 1.0 3.0 0.03 0.11 0.06 90 1002.7
20260504012220 40 288 1.0 3.0 0.03 0.11 0.06 90 1002.5
20260504011342 40 359 1.0 2.0 0.04 0.11 0.06 89 1002.5
20260504010716 41 322 0.0 0.0 0.04 0.11 0.06 89 1002.4
20260504010343 41 322 0.0 0.0 0.04 0.11 0.06 89 1002.5
20260504005344 41 330 1.0 2.0 0.04 0.11 0.06 89 1002.5
20260504005223 41 283 0.0 1.0 0.03 0.10 0.05 89 1002.4
20260504004346 41 317 1.0 2.0 0.02 0.09 0.04 88 1002.4
20260504003720 41 294 1.0 3.0 0.01 0.09 0.03 88 1002.5
20260504003336 41 316 1.0 3.0 0.01 0.09 0.03 87 1002.4
20260504002337 41 287 2.0 3.0 0.01 0.09 0.03 87 1002.3
20260504002216 41 279 1.0 2.0 0.01 0.09 0.03 87 1002.4
20260504001339 41 284 1.0 2.0 0.00 0.08 0.02 87 1002.5
20260504000723 41 301 1.0 2.0 0.00 0.08 0.02 86 1002.5
20260504000339 41 319 0.0 1.0 0.00 0.08 0.02 86 1002.5
20260503235341 41 292 1.0 3.0 0.00 0.08 0.02 86 1002.6
20260503235220 42 314 1.0 3.0 0.00 0.08 0.02 86 1002.5
20260503234342 42 345 1.0 2.0 0.00 0.08 0.02 85 1002.5
20260503233716 42 36 0.0 1.0 0.00 0.08 0.02 85 1002.3
20260503233342 42 17 1.0 2.0 0.00 0.08 0.02 85 1002.4
20260503232344 42 18 1.0 3.0 0.00 0.08 0.02 84 1002.5
20260503232223 42 11 2.0 5.0 0.00 0.08 0.02 84 1002.5
20260503231345 42 355 2.0 2.0 0.00 0.08 0.02 84 1002.3
20260503230720 42 37 1.0 2.0 0.00 0.08 0.02 84 1002.3
20260503230336 42 2 3.0 6.0 0.00 0.08 0.02 84 1002.2
20260503225337 42 10 2.0 6.0 0.00 0.08 0.02 84 1002.1
20260503225216 42 86 1.0 2.0 0.00 0.08 0.02 84 1002.1
20260503224338 42 89 7.0 10.0 0.00 0.08 0.02 84 1001.8
20260503223723 42 59 5.0 8.0 0.00 0.09 0.02 84 1001.8
20260503223339 42 79 3.0 3.0 0.00 0.09 0.02 84 1001.9
20260503222341 42 83 1.0 3.0 0.00 0.09 0.02 84 1002.0
20260503222219 42 50 1.0 3.0 0.00 0.09 0.02 84 1001.9
20260503221342 42 75 2.0 3.0 0.00 0.09 0.02 84 1002.0
20260503220716 42 56 2.0 6.0 0.00 0.09 0.02 84 1002.0
20260503220342 42 49 1.0 3.0 0.00 0.09 0.02 84 1002.0
20260503215344 42 3 2.0 3.0 0.00 0.09 0.02 83 1002.1
20260503215223 42 50 5.0 7.0 0.00 0.09 0.02 83 1002.2
20260503214345 42 9 3.0 12.0 0.00 0.09 0.02 83 1002.1
20260503213719 42 44 7.0 10.0 0.00 0.09 0.02 83 1002.1
20260503213335 42 8 2.0 7.0 0.00 0.09 0.02 83 1002.0
20260503212337 42 26 2.0 7.0 0.00 0.09 0.02 83 1001.9
20260503212216 42 26 2.0 5.0 0.00 0.09 0.02 83 1001.9
20260503211338 42 59 2.0 6.0 0.00 0.09 0.02 83 1001.8
20260503210723 43 47 5.0 12.0 0.00 0.09 0.02 82 1001.8
20260503210339 43 59 6.0 9.0 0.00 0.09 0.02 82 1001.9
20260503205340 43 57 6.0 9.0 0.00 0.09 0.02 82 1001.9
20260503205219 43 48 7.0 12.0 0.00 0.09 0.02 82 1001.9
20260503204341 43 83 3.0 10.0 0.00 0.09 0.02 82 1001.9
20260503203716 43 43 2.0 12.0 0.00 0.09 0.02 82 1002.0
20260503203342 43 53 3.0 7.0 0.00 0.09 0.02 82 1002.0
20260503202344 43 88 8.0 14.0 0.01 0.09 0.02 82 1001.9
20260503202223 43 136 5.0 7.0 0.01 0.09 0.02 82 1001.9
20260503201345 43 91 8.0 13.0 0.01 0.09 0.02 83 1001.8
20260503200719 42 83 6.0 13.0 0.02 0.09 0.02 84 1001.8
20260503200345 42 91 9.0 10.0 0.02 0.09 0.02 84 1001.8
20260503195337 42 109 2.0 6.0 0.02 0.09 0.02 85 1001.8
20260503195216 42 93 3.0 13.0 0.02 0.09 0.02 85 1001.8
20260503194338 42 108 3.0 5.0 0.02 0.09 0.02 85 1001.9
20260503193722 42 92 5.0 7.0 0.00 0.09 0.02 85 1001.8
20260503193338 42 87 8.0 15.0 0.00 0.09 0.02 84 1001.9
20260503192340 42 71 5.0 9.0 0.00 0.08 0.01 84 1001.8
20260503192219 42 36 3.0 6.0 0.00 0.08 0.01 84 1001.9
20260503191341 43 77 5.0 15.0 0.00 0.08 0.01 84 1001.8
20260503190716 43 90 3.0 7.0 0.00 0.07 0.00 83 1001.9
20260503190342 43 85 7.0 13.0 0.00 0.07 0.00 83 1002.0
20260503185343 43 96 10.0 20.0 0.00 0.07 0.00 83 1002.0
20260503185222 43 91 14.0 25.0 0.00 0.07 0.00 83 1002.1
20260503184345 43 91 12.0 26.0 0.00 0.07 0.00 83 1001.9
20260503183719 43 92 15.0 30.0 0.02 0.07 0.07 82 1001.9
20260503183345 44 94 15.0 25.0 0.02 0.07 0.07 82 1002.0
20260503182337 44 86 20.0 30.0 0.04 0.07 0.07 81 1001.9
20260503182216 44 97 10.0 20.0 0.04 0.07 0.07 81 1002.0
20260503181338 44 103 10.0 13.0 0.04 0.07 0.07 82 1001.8
20260503180722 44 77 6.0 17.0 0.03 0.06 0.06 84 1001.9
20260503180338 44 60 6.0 13.0 0.03 0.06 0.06 85 1001.8
20260503175340 44 60 5.0 6.0 0.03 0.06 0.06 85 1001.9
20260503175219 44 72 3.0 7.0 0.03 0.06 0.06 85 1001.9
20260503174341 44 74 3.0 9.0 0.03 0.06 0.06 85 1002.0
20260503173715 44 65 7.0 10.0 0.02 0.05 0.05 84 1001.8
20260503173341 44 61 5.0 13.0 0.02 0.05 0.05 84 1001.8
20260503172343 44 59 6.0 14.0 0.00 0.03 0.03 83 1001.9
20260503172222 44 63 8.0 16.0 0.00 0.03 0.03 83 1001.9
20260503171344 44 75 3.0 15.0 0.00 0.03 0.03 82 1001.8
20260503170719 44 42 5.0 9.0 0.00 0.03 0.03 81 1001.9
20260503170345 45 77 10.0 12.0 0.00 0.03 0.03 81 1001.9
20260503150720 46 93 8.0 14.0 0.00 0.03 0.03 78 1002.5
20260503150336 46 63 2.0 3.0 0.00 0.03 0.03 78 1002.4
20260503131338 47 38 5.0 9.0 0.00 0.05 0.03 77 1004.1
20260503130723 47 17 2.0 5.0 0.00 0.05 0.03 77 1004.2
20260503130339 47 21 3.0 6.0 0.00 0.05 0.03 77 1004.2
20260503110716 46 20 6.0 6.0 0.00 0.05 0.03 77 1006.4
20260503110342 46 357 7.0 12.0 0.00 0.05 0.03 77 1006.5